Location: *
(60.1759°S, 155.0663°W)
Time: 05:02:22
(UTC+00:00)

Cosmos 2279 Rocket - Pass Details

Date: 17 September 2019
Orbit: 963 x 980 km, 82.9° (Epoch: 15 October)

Event Time Altitude Azimuth Distance (km) Brightness Sun altitude
Exits shadow 13:43:22 - 3° (N) 2,843 6.1 -19.8°
Reaches altitude 10° 13:43:42 10° 3° (N) 2,718 6.0 -19.8°
Maximum altitude 13:49:52 67° 83° (E) 1,059 4.3 -19.1°
Drops below altitude 10° 13:56:07 10° 164° (SSE) 2,750 7.0 -18.4°
Sets 13:58:39 0° 166° (SSE) 3,704 7.7 -18.2°
